Location: Asheville, NC
(35.6000°N, 82.5500°W)
Time: 16:38:12
(UTC-04:00)

ISS - Pass Details

Date: 08 May 2026
Orbit: 414 x 424 km, 51.6° (Epoch: 15 May)

Event Time Altitude Azimuth Distance (km) Brightness Sun altitude
Rises 05:56:21 0° 300° (WNW) 2,357 -0.3 -7.3°
Reaches altitude 10° 05:58:38 10° 288° (WNW) 1,493 -1.4 -6.9°
Maximum altitude 06:01:30 27° 229° (SW) 847 -2.8 -6.4°
Drops below altitude 10° 06:04:22 10° 170° (S) 1,489 -1.1 -5.8°
Sets 06:06:39 0° 157° (SSE) 2,351 0.0 -5.4°
